Location: Unnamed
(47.9062°N, 20.3783°E)
Time: 12:20:13
(UTC+02:00)

ISS - Visible Passes

Search period start: 28 May 2022 00:00
Search period end: 07 June 2022 00:00
Orbit: 414 x 421 km, 51.6° (Epoch: 28 May)

Date Brightness Start Highest point End Pass type
(mag) Time Alt. Az. Time Alt. Az. Time Alt. Az.
28 May -3.8 21:01:27 10° WNW 21:04:49 86° SSW 21:08:10 10° ESE visible
28 May -1.9 22:38:52 10° W 22:41:12 18° SW 22:41:29 18° SW visible
29 May -2.4 21:50:20 10° W 21:53:14 27° SW 21:55:05 16° S visible
30 May -3.0 21:01:59 10° WNW 21:05:11 41° SSW 21:08:20 10° SE visible
31 May -1.3 21:51:55 10° WSW 21:53:15 12° SW 21:54:34 10° SSW visible
01 Jun -1.7 21:02:50 10° W 21:05:15 19° SW 21:07:39 10° S visible
